Date String (YYYY-MM-DD hh:mm:ss) UTC,Instrument flags,Ambient pressure (hPa),Sample flow (lpm),Bypass flow (lpm),Sample temperature (°C),Ambient temperature (°C),ASC tube jacket temperature (°C),LED temperature (°C),Box temperature (°C),Sample RH (%),Span deviation,Mass concentration (μg/m³),Mass concentration (μg/m³),Mass concentration (μg/m³)
DateTimeUTC,F1_M11,P_M11,Q1_M11,Q2_M11,T1_M11,T2_M11,T3_M11,T4_M11,T5_M11,U1_M11,ZSPAN_M11,X0_M11,X2_M11,X1_M11
2022-01-01 14:00:00,,0818.0,5.01,0.00,22.6,22.5,00.0,31.7,24.3,05.8,0000.0,0003.60,0000.31,0000.02
2022-01-01 14:01:00,,0818.0,4.99,0.00,22.8,23.3,00.0,31.8,24.6,06.1,0000.0,0003.63,0000.32,0000.03
2022-01-01 14:02:00,,0818.0,5.00,0.00,22.9,23.5,00.0,31.8,24.8,06.1,0000.0,0003.62,0000.31,0000.02
2022-01-01 14:03:00,,0817.9,4.99,0.00,22.9,23.2,00.0,31.8,24.7,06.1,0000.0,0003.57,0000.32,0000.02
2022-01-01 14:04:00,,0818.0,5.00,0.00,22.9,22.8,00.0,31.8,24.6,06.2,0000.0,0003.33,0000.32,0000.02
2022-01-01 14:05:00,,0817.9,5.00,0.00,22.8,22.4,00.0,31.8,24.5,06.1,0000.0,0001.93,0000.29,0000.02
2022-01-01 14:06:00,,0817.9,5.00,0.00,22.8,22.1,00.0,31.8,24.4,06.2,0000.0,0002.98,0000.33,0000.02
2022-01-01 14:07:00,,0817.9,4.99,0.00,22.7,21.9,00.0,31.8,24.3,06.2,0000.0,0003.51,0000.33,0000.02
2022-01-01 14:08:00,,0817.9,5.00,0.00,22.6,21.7,00.0,31.7,24.2,06.2,0000.0,0003.59,0000.34,0000.02
2022-01-01 14:09:00,,0817.8,5.01,0.00,22.6,21.6,00.0,31.7,24.2,06.2,0000.0,0003.96,0000.34,0000.02
2022-01-01 14:10:00,,0817.8,4.99,0.00,22.5,21.5,00.0,31.7,24.1,06.2,0000.0,0003.90,0000.32,0000.02
2022-01-01 14:11:00,,0817.9,5.00,0.00,22.5,21.5,00.0,31.6,24.1,06.2,0000.0,0003.78,0000.31,0000.02
2022-01-01 14:12:00,,0817.9,5.00,0.00,22.5,21.8,00.0,31.6,24.1,06.2,0000.0,0003.79,0000.33,0000.02
2022-01-01 14:13:00,,0818.0,5.00,0.00,22.6,22.5,00.0,31.6,24.3,06.2,0000.0,0003.77,0000.33,0000.02
2022-01-01 14:14:00,,0818.0,5.01,0.00,22.7,23.3,00.0,31.7,24.6,06.1,0000.0,0003.67,0000.29,0000.02
2022-01-01 14:15:00,,0818.0,4.99,0.00,22.8,23.3,00.0,31.7,24.7,06.1,0000.0,0003.63,0000.27,0000.02
2022-01-01 14:16:00,,0818.0,5.00,0.00,22.9,23.0,00.0,31.7,24.7,06.1,0000.0,0003.55,0000.25,0000.02
2022-01-01 14:17:00,,0818.1,5.00,0.00,22.8,22.7,00.0,31.7,24.6,06.1,0000.0,0002.06,0000.18,0000.02
2022-01-01 14:18:00,,0818.2,5.00,0.00,22.8,22.5,00.0,31.7,24.5,06.1,0000.0,0001.66,0000.18,0000.02
2022-01-01 14:19:00,,0818.2,5.00,0.00,22.8,22.3,00.0,31.7,24.4,06.1,0000.0,0001.72,0000.15,0000.02
2022-01-01 14:20:00,,0818.2,4.98,0.00,22.7,22.1,00.0,31.7,24.4,06.1,0000.0,0001.50,0000.16,0000.03
2022-01-01 14:21:00,,0818.2,5.01,0.00,22.7,22.0,00.0,31.7,24.3,06.1,0000.0,0001.53,0000.16,0000.03
2022-01-01 14:22:00,,0818.2,5.01,0.00,22.7,21.9,00.0,31.7,24.3,06.1,0000.0,0002.04,0000.17,0000.03
2022-01-01 14:23:00,,0818.2,5.00,0.00,22.6,21.8,00.0,31.7,24.2,06.1,0000.0,0002.19,0000.16,0000.02
2022-01-01 14:24:00,,0818.2,5.00,0.00,22.6,21.7,00.0,31.6,24.2,06.1,0000.0,0002.42,0000.18,0000.02
2022-01-01 14:25:00,,0818.2,5.01,0.00,22.6,21.8,00.0,31.6,24.2,06.1,0000.0,0002.44,0000.19,0000.02
2022-01-01 14:26:00,,0818.4,4.99,0.00,22.6,22.4,00.0,31.6,24.3,06.0,0000.0,0002.58,0000.20,0000.02
2022-01-01 14:27:00,,0818.4,4.99,0.00,22.7,23.2,00.0,31.7,24.6,06.0,0000.0,0002.88,0000.22,0000.02
2022-01-01 14:28:00,,0818.4,5.00,0.00,22.9,23.6,00.0,31.7,24.8,06.0,0000.0,0002.90,0000.23,0000.03
2022-01-01 14:29:00,,0818.4,5.00,0.00,22.9,23.3,00.0,31.7,24.8,06.0,0000.0,0003.00,0000.18,0000.02
2022-01-01 14:30:00,,0818.4,5.01,0.00,22.9,23.0,00.0,31.7,24.7,06.0,0000.0,0003.19,0000.18,0000.03
2022-01-01 14:31:00,,0818.3,4.99,0.00,22.9,22.7,00.0,31.7,24.6,06.0,0000.0,0003.78,0000.18,0000.03
2022-01-01 14:32:00,,0818.2,5.01,0.00,22.8,22.5,00.0,31.7,24.5,06.0,0000.0,0003.84,0000.20,0000.02
2022-01-01 14:33:00,,0818.2,5.00,0.00,22.8,22.3,00.0,31.7,24.5,06.1,0000.0,0003.66,0000.23,0000.03
2022-01-01 14:34:00,,0818.3,4.99,0.00,22.7,22.2,00.0,31.7,24.4,06.1,0000.0,0003.53,0000.22,0000.03
2022-01-01 14:35:00,,0818.3,5.02,0.00,22.7,22.0,00.0,31.7,24.3,06.1,0000.0,0003.37,0000.22,0000.03
2022-01-01 14:36:00,,0818.4,5.00,0.00,22.6,21.9,00.0,31.7,24.2,06.1,0000.0,0003.40,0000.22,0000.04
2022-01-01 14:37:00,,0818.4,4.99,0.00,22.6,21.8,00.0,31.7,24.2,06.1,0000.0,0003.27,0000.23,0000.04
2022-01-01 14:38:00,,0818.4,5.02,0.00,22.5,21.8,00.0,31.6,24.1,06.1,0000.0,0003.10,0000.24,0000.04
2022-01-01 14:39:00,,0818.4,4.99,0.00,22.6,22.1,00.0,31.6,24.2,06.2,0000.0,0003.15,0000.25,0000.03
2022-01-01 14:40:00,,0818.5,5.01,0.00,22.7,22.9,00.0,31.7,24.5,06.1,0000.0,0002.88,0000.26,0000.03
2022-01-01 14:41:00,,0818.5,5.00,0.00,22.8,23.5,00.0,31.7,24.7,06.1,0000.0,0001.66,0000.24,0000.03
2022-01-01 14:42:00,,0818.6,5.01,0.00,22.9,23.3,00.0,31.7,24.8,06.1,0000.0,0001.01,0000.22,0000.02
2022-01-01 14:43:00,,0818.6,5.00,0.00,22.9,23.0,00.0,31.7,24.7,06.1,0000.0,0000.74,0000.19,0000.03
2022-01-01 14:44:00,,0818.7,5.00,0.00,22.8,22.7,00.0,31.7,24.6,05.8,0000.0,0000.48,0000.17,0000.03
2022-01-01 14:45:00,,0818.7,5.00,0.00,22.8,22.3,00.0,31.7,24.4,05.9,0000.0,0000.42,0000.16,0000.03
2022-01-01 14:46:00,,0818.7,4.99,0.00,22.7,22.2,00.0,31.7,24.3,05.7,0000.0,0000.40,0000.15,0000.02
2022-01-01 14:47:00,,0818.7,5.02,0.00,22.6,22.1,00.0,31.7,24.2,05.7,0000.0,0000.42,0000.14,0000.02
2022-01-01 14:48:00,,0818.7,4.99,0.00,22.6,21.9,00.0,31.7,24.0,05.7,0000.0,0000.66,0000.13,0000.03
2022-01-01 14:49:00,,0818.7,5.02,0.00,22.5,21.8,00.0,31.6,23.9,05.6,0000.0,0000.58,0000.11,0000.02
2022-01-01 14:50:00,,0818.8,5.00,0.00,22.4,21.5,00.0,31.6,23.8,05.6,0000.0,0000.53,0000.10,0000.02
2022-01-01 14:51:00,,0818.8,5.01,0.00,22.3,21.7,00.0,31.6,23.8,05.6,0000.0,0000.51,0000.08,0000.02
2022-01-01 14:52:00,,0818.8,5.00,0.00,22.5,22.4,00.0,31.6,24.1,05.6,0000.0,0000.51,0000.08,0000.02
2022-01-01 14:53:00,,0818.8,5.00,0.00,22.6,23.2,00.0,31.6,24.4,05.5,0000.0,0001.44,0000.09,0000.02
2022-01-01 14:54:00,,0818.8,5.01,0.00,22.7,23.1,00.0,31.7,24.5,05.5,0000.0,0001.83,0000.11,0000.03
2022-01-01 14:55:00,,0818.8,4.99,0.00,22.6,22.5,00.0,31.7,24.3,05.5,0000.0,0001.86,0000.12,0000.03
2022-01-01 14:56:00,,0818.8,4.99,0.00,22.6,22.1,00.0,31.6,24.2,05.5,0000.0,0001.93,0000.15,0000.03
2022-01-01 14:57:00,,0818.8,5.02,0.00,22.5,21.7,00.0,31.6,24.0,05.6,0000.0,0001.99,0000.17,0000.03
2022-01-01 14:58:00,,0818.8,5.00,0.00,22.4,21.4,00.0,31.6,23.8,05.6,0000.0,0001.96,0000.17,0000.03
2022-01-01 14:59:00,,0818.8,4.98,0.00,22.3,21.1,00.0,31.5,23.7,05.6,0000.0,0001.78,0000.18,0000.03
